Year,Month,Day,Hour,Minute,Value (Times are PST for temperature in C)
2016,04,02,00,00,7.90
2016,04,02,00,01,7.90
2016,04,02,00,02,7.90
2016,04,02,00,03,7.90
2016,04,02,00,04,7.90
2016,04,02,00,05,7.90
2016,04,02,00,06,7.90
2016,04,02,00,07,7.90
2016,04,02,00,08,7.90
2016,04,02,00,09,7.90
2016,04,02,00,10,7.90
2016,04,02,00,11,7.90
2016,04,02,00,12,7.90
2016,04,02,00,13,7.90
2016,04,02,00,14,7.90
2016,04,02,00,15,7.90
2016,04,02,00,16,7.90
2016,04,02,00,17,7.90
2016,04,02,00,18,7.80
2016,04,02,00,19,7.80
2016,04,02,00,20,7.80
2016,04,02,00,21,7.80
2016,04,02,00,22,7.80
2016,04,02,00,23,7.80
2016,04,02,00,24,7.80
2016,04,02,00,25,7.80
2016,04,02,00,26,7.80
2016,04,02,00,27,7.80
2016,04,02,00,28,7.80
2016,04,02,00,29,7.70
2016,04,02,00,30,7.70
2016,04,02,00,31,7.70
2016,04,02,00,32,7.70
2016,04,02,00,33,7.70
2016,04,02,00,34,7.70
2016,04,02,00,35,7.70
2016,04,02,00,36,7.70
2016,04,02,00,37,7.70
2016,04,02,00,38,7.70
2016,04,02,00,39,7.70
2016,04,02,00,40,7.70
2016,04,02,00,41,7.70
2016,04,02,00,42,7.70
2016,04,02,00,43,7.60
2016,04,02,00,44,7.60
2016,04,02,00,45,7.60
2016,04,02,00,46,7.50
2016,04,02,00,47,7.50
2016,04,02,00,48,7.50
2016,04,02,00,49,7.50
2016,04,02,00,50,7.40
2016,04,02,00,51,7.40
2016,04,02,00,52,7.40
2016,04,02,00,53,7.40
2016,04,02,00,54,7.30
2016,04,02,00,55,7.30
2016,04,02,00,56,7.30
2016,04,02,00,57,7.30
2016,04,02,00,58,7.30
2016,04,02,00,59,7.30
2016,04,02,01,00,7.30
2016,04,02,01,01,7.30
2016,04,02,01,02,7.30
2016,04,02,01,03,7.30
2016,04,02,01,04,7.30
2016,04,02,01,05,7.30
2016,04,02,01,06,7.40
2016,04,02,01,07,7.40
2016,04,02,01,08,7.40
2016,04,02,01,09,7.40
2016,04,02,01,10,7.30
2016,04,02,01,11,7.30
2016,04,02,01,12,7.30
2016,04,02,01,13,7.20
2016,04,02,01,14,7.20
2016,04,02,01,15,7.20
2016,04,02,01,16,7.20
2016,04,02,01,17,7.20
2016,04,02,01,18,7.20
2016,04,02,01,19,7.20
2016,04,02,01,20,7.20
2016,04,02,01,21,7.20
2016,04,02,01,22,7.20
2016,04,02,01,23,7.20
2016,04,02,01,24,7.20
2016,04,02,01,25,7.10
2016,04,02,01,26,7.10
2016,04,02,01,27,7.10
2016,04,02,01,28,7.10
2016,04,02,01,29,7.10
2016,04,02,01,30,7.10
2016,04,02,01,31,7.10
2016,04,02,01,32,7.10
2016,04,02,01,33,7.10
2016,04,02,01,34,7.10
2016,04,02,01,35,7.10
2016,04,02,01,36,7.10
2016,04,02,01,37,7.10
2016,04,02,01,38,7.10
2016,04,02,01,39,7.10
2016,04,02,01,40,7.10
2016,04,02,01,41,7.10
2016,04,02,01,42,7.10
2016,04,02,01,43,7.20
2016,04,02,01,44,7.20
2016,04,02,01,45,7.30
2016,04,02,01,46,7.30
2016,04,02,01,47,7.30
2016,04,02,01,48,7.30
2016,04,02,01,49,7.30
2016,04,02,01,50,7.30
2016,04,02,01,51,7.30
2016,04,02,01,52,7.30
2016,04,02,01,53,7.30
2016,04,02,01,54,7.30
2016,04,02,01,55,7.20
2016,04,02,01,56,7.20
2016,04,02,01,57,7.20
2016,04,02,01,58,7.20
2016,04,02,01,59,7.20
2016,04,02,02,00,7.20
2016,04,02,02,01,7.20
2016,04,02,02,02,7.20
2016,04,02,02,03,7.20
2016,04,02,02,04,7.20
2016,04,02,02,05,7.10
2016,04,02,02,06,7.10
2016,04,02,02,07,7.00
2016,04,02,02,08,7.00
2016,04,02,02,09,7.00
2016,04,02,02,10,7.00
2016,04,02,02,11,7.00
2016,04,02,02,12,7.00
2016,04,02,02,13,6.90
2016,04,02,02,14,6.90
2016,04,02,02,15,6.90
2016,04,02,02,16,6.90
2016,04,02,02,17,6.90
2016,04,02,02,18,6.90
2016,04,02,02,19,6.90
2016,04,02,02,20,6.90
2016,04,02,02,21,6.80
2016,04,02,02,22,6.80
2016,04,02,02,23,6.80
2016,04,02,02,24,6.70
2016,04,02,02,25,6.70
2016,04,02,02,26,6.70
2016,04,02,02,27,6.70
2016,04,02,02,28,6.70
2016,04,02,02,29,6.70
2016,04,02,02,30,6.70
2016,04,02,02,31,6.70
2016,04,02,02,32,6.70
2016,04,02,02,33,6.70
2016,04,02,02,34,6.70
2016,04,02,02,35,6.70
2016,04,02,02,36,6.70
2016,04,02,02,37,6.70
2016,04,02,02,38,6.60
2016,04,02,02,39,6.60
2016,04,02,02,40,6.60
2016,04,02,02,41,6.60
2016,04,02,02,42,6.60
2016,04,02,02,43,6.60
2016,04,02,02,44,6.60
2016,04,02,02,45,6.60
2016,04,02,02,46,6.60
2016,04,02,02,47,6.50
2016,04,02,02,48,6.50
2016,04,02,02,49,6.50
2016,04,02,02,50,6.50
2016,04,02,02,51,6.50
2016,04,02,02,52,6.50
2016,04,02,02,53,6.50
2016,04,02,02,54,6.40
2016,04,02,02,55,6.40
2016,04,02,02,56,6.40
2016,04,02,02,57,6.40
2016,04,02,02,58,6.40
2016,04,02,02,59,6.40
2016,04,02,03,00,6.40
2016,04,02,03,01,6.40
2016,04,02,03,02,6.40
2016,04,02,03,03,6.40
2016,04,02,03,06,6.40
2016,04,02,03,07,6.40
2016,04,02,03,08,6.30
2016,04,02,03,09,6.30
2016,04,02,03,10,6.30
2016,04,02,03,11,6.30
2016,04,02,03,12,6.30
2016,04,02,03,13,6.30
2016,04,02,03,14,6.30
2016,04,02,03,15,6.30
2016,04,02,03,16,6.30
2016,04,02,03,17,6.30
2016,04,02,03,18,6.30
2016,04,02,03,19,6.40
2016,04,02,03,20,6.40
2016,04,02,03,21,6.40
2016,04,02,03,22,6.30
2016,04,02,03,23,6.30
2016,04,02,03,24,6.40
2016,04,02,03,25,6.40
2016,04,02,03,26,6.40
2016,04,02,03,27,6.30
2016,04,02,03,28,6.40
2016,04,02,03,29,6.40
2016,04,02,03,30,6.40
2016,04,02,03,31,6.40
2016,04,02,03,32,6.40
2016,04,02,03,33,6.40
2016,04,02,03,34,6.40
2016,04,02,03,35,6.40
2016,04,02,03,36,6.30
2016,04,02,03,37,6.30
2016,04,02,03,38,6.30
2016,04,02,03,39,6.30
2016,04,02,03,40,6.30
2016,04,02,03,41,6.30
2016,04,02,03,42,6.30
2016,04,02,03,43,6.30
2016,04,02,03,44,6.30
2016,04,02,03,45,6.30
2016,04,02,03,46,6.30
2016,04,02,03,47,6.30
2016,04,02,03,48,6.30
2016,04,02,03,49,6.30
2016,04,02,03,50,6.30
2016,04,02,03,51,6.20
2016,04,02,03,52,6.20
2016,04,02,03,53,6.20
2016,04,02,03,54,6.20
2016,04,02,03,55,6.20
2016,04,02,03,56,6.20
2016,04,02,03,57,6.20
2016,04,02,03,58,6.20
2016,04,02,03,59,6.10
2016,04,02,04,00,6.10
2016,04,02,04,01,6.10
2016,04,02,04,02,6.10
2016,04,02,04,03,6.10
2016,04,02,04,04,6.10
2016,04,02,04,05,6.10
2016,04,02,04,06,6.20
2016,04,02,04,07,6.20
2016,04,02,04,08,6.20
2016,04,02,04,09,6.20
2016,04,02,04,10,6.20
2016,04,02,04,11,6.20
2016,04,02,04,12,6.20
2016,04,02,04,13,6.20
2016,04,02,04,14,6.20
2016,04,02,04,15,6.20
2016,04,02,04,16,6.10
2016,04,02,04,17,6.10
2016,04,02,04,18,6.10
2016,04,02,04,19,6.10
2016,04,02,04,20,6.10
2016,04,02,04,21,6.10
2016,04,02,04,22,6.10
2016,04,02,04,23,6.10
2016,04,02,04,24,6.10
2016,04,02,04,25,6.10
2016,04,02,04,26,6.00
2016,04,02,04,27,6.00
2016,04,02,04,28,6.00
2016,04,02,04,29,6.00
2016,04,02,04,30,6.00
2016,04,02,04,31,6.00
2016,04,02,04,32,6.00
2016,04,02,04,33,6.00
2016,04,02,04,34,6.00
2016,04,02,04,35,6.00
2016,04,02,04,36,6.00
2016,04,02,04,37,6.00
2016,04,02,04,38,6.00
2016,04,02,04,39,6.00
2016,04,02,04,40,6.00
2016,04,02,04,41,6.00
2016,04,02,04,42,5.90
2016,04,02,04,43,5.90
2016,04,02,04,44,5.90
2016,04,02,04,45,5.90
2016,04,02,04,46,5.90
2016,04,02,04,47,5.90
2016,04,02,04,48,5.80
2016,04,02,04,49,5.80
2016,04,02,04,50,5.80
2016,04,02,04,51,5.80
2016,04,02,04,52,5.80
2016,04,02,04,53,5.80
2016,04,02,04,54,5.80
2016,04,02,04,55,5.90
2016,04,02,04,56,5.90
2016,04,02,04,57,5.90
2016,04,02,04,58,5.90
2016,04,02,04,59,5.90
2016,04,02,05,00,5.90
2016,04,02,05,01,5.90
2016,04,02,05,02,5.90
2016,04,02,05,03,5.80
2016,04,02,05,04,5.80
2016,04,02,05,05,5.80
2016,04,02,05,06,5.80
2016,04,02,05,07,5.80
2016,04,02,05,08,5.80
2016,04,02,05,09,5.80
2016,04,02,05,10,5.80
2016,04,02,05,11,5.80
2016,04,02,05,12,5.80
2016,04,02,05,13,5.80
2016,04,02,05,14,5.70
2016,04,02,05,15,5.70
2016,04,02,05,16,5.70
2016,04,02,05,17,5.70
2016,04,02,05,18,5.70
2016,04,02,05,19,5.70
2016,04,02,05,20,5.60
2016,04,02,05,21,5.60
2016,04,02,05,22,5.60
2016,04,02,05,23,5.60
2016,04,02,05,24,5.60
2016,04,02,05,25,5.70
2016,04,02,05,26,5.70
2016,04,02,05,27,5.70
2016,04,02,05,28,5.70
2016,04,02,05,29,5.70
2016,04,02,05,30,5.70
2016,04,02,05,31,5.70
2016,04,02,05,32,5.70
2016,04,02,05,33,5.70
2016,04,02,05,34,5.70
2016,04,02,05,35,5.70
2016,04,02,05,36,5.60
2016,04,02,05,37,5.60
2016,04,02,05,38,5.60
2016,04,02,05,39,5.60
2016,04,02,05,40,5.60
2016,04,02,05,41,5.60
2016,04,02,05,42,5.60
2016,04,02,05,43,5.60
2016,04,02,05,44,5.60
2016,04,02,05,45,5.60
2016,04,02,05,46,5.60
2016,04,02,05,47,5.50
2016,04,02,05,48,5.50
2016,04,02,05,49,5.50
2016,04,02,05,50,5.40
2016,04,02,05,51,5.40
2016,04,02,05,52,5.40
2016,04,02,05,53,5.30
2016,04,02,05,54,5.30
2016,04,02,05,55,5.30
2016,04,02,05,56,5.30
2016,04,02,05,57,5.30
2016,04,02,05,58,5.30
2016,04,02,05,59,5.30
2016,04,02,06,00,5.30
2016,04,02,06,01,5.30
2016,04,02,06,02,5.30
2016,04,02,06,03,5.30
2016,04,02,06,04,5.40
2016,04,02,06,05,5.40
2016,04,02,06,06,5.40
2016,04,02,06,07,5.50
2016,04,02,06,08,5.50
2016,04,02,06,09,5.60
2016,04,02,06,10,5.60
2016,04,02,06,11,5.50
2016,04,02,06,12,5.50
2016,04,02,06,13,5.40
2016,04,02,06,14,5.40
2016,04,02,06,15,5.40
2016,04,02,06,16,5.30
2016,04,02,06,17,5.30
2016,04,02,06,18,5.30
2016,04,02,06,19,5.30
2016,04,02,06,20,5.30
2016,04,02,06,21,5.30
2016,04,02,06,22,5.30
2016,04,02,06,23,5.30
2016,04,02,06,24,5.30
2016,04,02,06,25,5.40
2016,04,02,06,26,5.40
2016,04,02,06,27,5.40
2016,04,02,06,28,5.40
2016,04,02,06,29,5.30
2016,04,02,06,30,5.30
2016,04,02,06,31,5.30
2016,04,02,06,32,5.30
2016,04,02,06,33,5.30
2016,04,02,06,34,5.30
2016,04,02,06,35,5.30
2016,04,02,06,36,5.40
2016,04,02,06,37,5.40
2016,04,02,06,38,5.40
2016,04,02,06,39,5.40
2016,04,02,06,40,5.40
2016,04,02,06,41,5.40
2016,04,02,06,42,5.40
2016,04,02,06,43,5.40
2016,04,02,06,44,5.40
2016,04,02,06,45,5.30
2016,04,02,06,46,5.30
2016,04,02,06,47,5.30
2016,04,02,06,48,5.30
2016,04,02,06,49,5.30
2016,04,02,06,50,5.30
2016,04,02,06,51,5.30
2016,04,02,06,52,5.30
2016,04,02,06,53,5.40
2016,04,02,06,54,5.40
2016,04,02,06,55,5.40
2016,04,02,06,56,5.50
2016,04,02,06,57,5.60
2016,04,02,06,58,5.70
2016,04,02,06,59,5.70
2016,04,02,07,00,5.70
2016,04,02,07,01,5.70
2016,04,02,07,02,5.70
2016,04,02,07,03,5.70
2016,04,02,07,04,5.70
2016,04,02,07,05,5.70
2016,04,02,07,06,5.70
2016,04,02,07,07,5.70
2016,04,02,07,08,5.70
2016,04,02,07,09,5.70
2016,04,02,07,10,5.70
2016,04,02,07,11,5.70
2016,04,02,07,12,5.70
2016,04,02,07,13,5.70
2016,04,02,07,14,5.70
2016,04,02,07,15,5.70
2016,04,02,07,16,5.70
2016,04,02,07,17,5.70
2016,04,02,07,18,5.70
2016,04,02,07,19,5.70
2016,04,02,07,20,5.70
2016,04,02,07,21,5.70
2016,04,02,07,22,5.70
2016,04,02,07,23,5.70
2016,04,02,07,24,5.60
2016,04,02,07,25,5.60
2016,04,02,07,26,5.60
2016,04,02,07,27,5.70
2016,04,02,07,28,5.70
2016,04,02,07,29,5.70
2016,04,02,07,30,5.70
2016,04,02,07,31,5.70
2016,04,02,07,32,5.70
2016,04,02,07,33,5.70
2016,04,02,07,34,5.70
2016,04,02,07,35,5.70
2016,04,02,07,36,5.80
2016,04,02,07,37,5.80
2016,04,02,07,38,5.80
2016,04,02,07,39,5.80
2016,04,02,07,40,5.70
2016,04,02,07,41,5.70
2016,04,02,07,42,5.80
2016,04,02,07,43,5.80
2016,04,02,07,44,5.80
2016,04,02,07,45,5.80
2016,04,02,07,46,5.80
2016,04,02,07,47,5.80
2016,04,02,07,48,5.80
2016,04,02,07,49,5.80
2016,04,02,07,50,5.80
2016,04,02,07,51,5.90
2016,04,02,07,52,5.90
2016,04,02,07,53,5.90
2016,04,02,07,54,6.00
2016,04,02,07,55,6.00
2016,04,02,07,56,6.10
2016,04,02,07,57,6.10
2016,04,02,07,58,6.10
2016,04,02,07,59,6.10
2016,04,02,08,00,6.10
2016,04,02,08,01,6.10
2016,04,02,08,02,6.10
2016,04,02,08,03,6.10
2016,04,02,08,04,6.20
2016,04,02,08,05,6.20
2016,04,02,08,06,6.20
2016,04,02,08,07,6.20
2016,04,02,08,08,6.20
2016,04,02,08,09,6.20
2016,04,02,08,10,6.30
2016,04,02,08,11,6.30
2016,04,02,08,12,6.30
2016,04,02,08,13,6.30
2016,04,02,08,14,6.40
2016,04,02,08,15,6.40
2016,04,02,08,16,6.50
2016,04,02,08,17,6.50
2016,04,02,08,18,6.60
2016,04,02,08,19,6.60
2016,04,02,08,20,6.70
2016,04,02,08,21,6.80
2016,04,02,08,22,6.90
2016,04,02,08,23,6.90
2016,04,02,08,24,7.00
2016,04,02,08,25,7.10
2016,04,02,08,26,7.10
2016,04,02,08,27,7.20
2016,04,02,08,28,7.30
2016,04,02,08,29,7.40
2016,04,02,08,30,7.50
2016,04,02,08,31,7.60
2016,04,02,08,32,7.60
2016,04,02,08,33,7.70
2016,04,02,08,34,7.80
2016,04,02,08,35,7.80
2016,04,02,08,36,7.90
2016,04,02,08,37,7.90
2016,04,02,08,38,8.00
2016,04,02,08,39,8.10
2016,04,02,08,40,8.10
2016,04,02,08,41,8.20
2016,04,02,08,42,8.30
2016,04,02,08,43,8.40
2016,04,02,08,44,8.50
2016,04,02,08,45,8.60
2016,04,02,08,46,8.70
2016,04,02,08,47,8.80
2016,04,02,08,48,8.80
2016,04,02,08,49,8.90
2016,04,02,08,50,9.00
2016,04,02,08,51,9.00
2016,04,02,08,52,9.10
2016,04,02,08,53,9.20
2016,04,02,08,54,9.20
2016,04,02,08,55,9.30
2016,04,02,08,56,9.30
2016,04,02,08,57,9.40
2016,04,02,08,58,9.50
2016,04,02,08,59,9.50
2016,04,02,09,00,9.60
2016,04,02,09,01,9.60
2016,04,02,09,02,9.60
2016,04,02,09,03,9.70
2016,04,02,09,04,9.70
2016,04,02,09,05,9.70
2016,04,02,09,06,9.80
2016,04,02,09,07,9.80
2016,04,02,09,08,9.90
2016,04,02,09,09,10.00
2016,04,02,09,10,10.00
2016,04,02,09,11,10.10
2016,04,02,09,12,10.20
2016,04,02,09,13,10.20
2016,04,02,09,14,10.30
2016,04,02,09,15,10.30
2016,04,02,09,16,10.40
2016,04,02,09,17,10.40
2016,04,02,09,18,10.50
2016,04,02,09,19,10.60
2016,04,02,09,20,10.70
2016,04,02,09,21,10.70
2016,04,02,09,22,10.80
2016,04,02,09,23,10.80
2016,04,02,09,24,10.90
2016,04,02,09,25,11.00
2016,04,02,09,26,11.00
2016,04,02,09,27,11.10
2016,04,02,09,28,11.20
2016,04,02,09,29,11.20
2016,04,02,09,30,11.30
2016,04,02,09,31,11.30
2016,04,02,09,32,11.40
2016,04,02,09,33,11.40
2016,04,02,09,34,11.50
2016,04,02,09,35,11.50
2016,04,02,09,36,11.60
2016,04,02,09,37,11.60
2016,04,02,09,38,11.60
2016,04,02,09,39,11.60
2016,04,02,09,40,11.60
2016,04,02,09,41,11.60
2016,04,02,09,42,11.70
2016,04,02,09,43,11.70
2016,04,02,09,44,11.80
2016,04,02,09,45,11.80
2016,04,02,09,46,11.90
2016,04,02,09,47,11.90
2016,04,02,09,48,12.00
2016,04,02,09,49,12.00
2016,04,02,09,50,12.10
2016,04,02,09,51,12.10
2016,04,02,09,52,12.10
2016,04,02,09,53,12.20
2016,04,02,09,54,12.20
2016,04,02,09,55,12.30
2016,04,02,09,56,12.30
2016,04,02,09,57,12.40
2016,04,02,09,58,12.40
2016,04,02,09,59,12.40
2016,04,02,10,00,12.40
2016,04,02,10,01,12.40
2016,04,02,10,02,12.50
2016,04,02,10,03,12.50
2016,04,02,10,04,12.50
2016,04,02,10,05,12.40
2016,04,02,10,06,12.40
2016,04,02,10,07,12.40
2016,04,02,10,08,12.50
2016,04,02,10,09,12.50
2016,04,02,10,10,12.50
2016,04,02,10,11,12.40
2016,04,02,10,12,12.40
2016,04,02,10,13,12.40
2016,04,02,10,14,12.50
2016,04,02,10,15,12.50
2016,04,02,10,16,12.60
2016,04,02,10,17,12.60
2016,04,02,10,18,12.70
2016,04,02,10,19,12.70
2016,04,02,10,20,12.60
2016,04,02,10,21,12.60
2016,04,02,10,22,12.60
2016,04,02,10,23,12.60
2016,04,02,10,24,12.60
2016,04,02,10,25,12.60
2016,04,02,10,26,12.70
2016,04,02,10,27,12.70
2016,04,02,10,28,12.80
2016,04,02,10,29,12.80
2016,04,02,10,30,12.90
2016,04,02,10,31,12.90
2016,04,02,10,32,13.00
2016,04,02,10,33,13.10
2016,04,02,10,34,13.10
2016,04,02,10,35,13.10
2016,04,02,10,36,13.10
2016,04,02,10,37,13.10
2016,04,02,10,38,13.10
2016,04,02,10,39,13.10
2016,04,02,10,40,13.10
2016,04,02,10,41,13.00
2016,04,02,10,42,13.00
2016,04,02,10,43,12.90
2016,04,02,10,44,12.90
2016,04,02,10,45,12.80
2016,04,02,10,46,12.80
2016,04,02,10,47,12.80
2016,04,02,10,48,12.70
2016,04,02,10,49,12.70
2016,04,02,10,50,12.60
2016,04,02,10,51,12.60
2016,04,02,10,52,12.70
2016,04,02,10,53,12.80
2016,04,02,10,54,12.80
2016,04,02,10,55,12.90
2016,04,02,10,56,13.00
2016,04,02,10,57,13.00
2016,04,02,10,58,13.10
2016,04,02,10,59,13.10
2016,04,02,11,00,13.00
2016,04,02,11,01,13.00
2016,04,02,11,02,13.00
2016,04,02,11,03,13.00
2016,04,02,11,04,13.00
2016,04,02,11,05,13.00
2016,04,02,11,06,12.90
2016,04,02,11,07,12.90
2016,04,02,11,08,12.90
2016,04,02,11,09,12.90
2016,04,02,11,10,13.00
2016,04,02,11,11,13.00
2016,04,02,11,12,13.10
2016,04,02,11,13,13.10
2016,04,02,11,14,13.20
2016,04,02,11,15,13.20
2016,04,02,11,16,13.30
2016,04,02,11,17,13.30
2016,04,02,11,18,13.40
2016,04,02,11,19,13.30
2016,04,02,11,20,13.30
2016,04,02,11,21,13.30
2016,04,02,11,22,13.30
2016,04,02,11,23,13.30
2016,04,02,11,24,13.30
2016,04,02,11,25,13.30
2016,04,02,11,26,13.30
2016,04,02,11,27,13.30
2016,04,02,11,28,13.40
2016,04,02,11,29,13.50
2016,04,02,11,30,13.60
2016,04,02,11,31,13.70
2016,04,02,11,32,13.70
2016,04,02,11,33,13.70
2016,04,02,11,34,13.70
2016,04,02,11,35,13.70
2016,04,02,11,36,13.70
2016,04,02,11,37,13.70
2016,04,02,11,38,13.80
2016,04,02,11,39,13.80
2016,04,02,11,40,13.80
2016,04,02,11,41,13.80
2016,04,02,11,42,13.70
2016,04,02,11,43,13.70
2016,04,02,11,44,13.60
2016,04,02,11,45,13.60
2016,04,02,11,46,13.60
2016,04,02,11,47,13.70
2016,04,02,11,48,13.80
2016,04,02,11,49,13.90
2016,04,02,11,50,14.00
2016,04,02,11,51,14.10
2016,04,02,11,52,14.20
2016,04,02,11,53,14.40
2016,04,02,11,54,14.60
2016,04,02,11,55,14.70
2016,04,02,11,56,14.80
2016,04,02,11,57,14.80
2016,04,02,11,58,14.90
2016,04,02,11,59,14.90
2016,04,02,12,00,14.90
2016,04,02,12,01,14.90
2016,04,02,12,02,14.90
2016,04,02,12,03,14.80
2016,04,02,12,04,14.70
2016,04,02,12,05,14.70
2016,04,02,12,06,14.80
2016,04,02,12,07,14.90
2016,04,02,12,08,15.00
2016,04,02,12,09,15.10
2016,04,02,12,10,15.10
2016,04,02,12,11,15.20
2016,04,02,12,12,15.30
2016,04,02,12,13,15.50
2016,04,02,12,14,15.60
2016,04,02,12,15,15.50
2016,04,02,12,16,15.40
2016,04,02,12,17,15.30
2016,04,02,12,18,15.30
2016,04,02,12,19,15.10
2016,04,02,12,20,14.90
2016,04,02,12,21,14.60
2016,04,02,12,22,14.40
2016,04,02,12,23,14.20
2016,04,02,12,24,14.10
2016,04,02,12,25,14.00
2016,04,02,12,26,14.00
2016,04,02,12,27,14.10
2016,04,02,12,28,14.20
2016,04,02,12,29,14.30
2016,04,02,12,30,14.50
2016,04,02,12,31,14.50
2016,04,02,12,32,14.60
2016,04,02,12,33,14.50
2016,04,02,12,34,14.50
2016,04,02,12,35,14.40
2016,04,02,12,36,14.50
2016,04,02,12,37,14.50
2016,04,02,12,38,14.60
2016,04,02,12,39,14.60
2016,04,02,12,40,14.60
2016,04,02,12,41,14.70
2016,04,02,12,42,14.70
2016,04,02,12,43,14.80
2016,04,02,12,44,14.80
2016,04,02,12,45,14.90
2016,04,02,12,46,14.90
2016,04,02,12,47,14.90
2016,04,02,12,48,15.00
2016,04,02,12,49,15.10
2016,04,02,12,50,15.10
2016,04,02,12,51,15.00
2016,04,02,12,52,14.90
2016,04,02,12,53,14.80
2016,04,02,12,54,14.70
2016,04,02,12,55,14.60
2016,04,02,12,56,14.60
2016,04,02,12,57,14.70
2016,04,02,12,58,14.80
2016,04,02,12,59,14.80
2016,04,02,13,00,14.70
2016,04,02,13,01,14.70
2016,04,02,13,02,14.70
2016,04,02,13,03,14.60
2016,04,02,13,04,14.50
2016,04,02,13,05,14.50
2016,04,02,13,06,14.30
2016,04,02,13,07,14.20
2016,04,02,13,08,14.20
2016,04,02,13,09,14.20
2016,04,02,13,10,14.30
2016,04,02,13,11,14.30
2016,04,02,13,12,14.30
2016,04,02,13,13,14.30
2016,04,02,13,14,14.30
2016,04,02,13,15,14.30
2016,04,02,13,16,14.40
2016,04,02,13,17,14.30
2016,04,02,13,18,14.30
2016,04,02,13,19,14.40
2016,04,02,13,20,14.60
2016,04,02,13,21,14.60
2016,04,02,13,22,14.60
2016,04,02,13,23,14.70
2016,04,02,13,24,14.70
2016,04,02,13,25,14.70
2016,04,02,13,26,14.50
2016,04,02,13,27,14.50
2016,04,02,13,28,14.50
2016,04,02,13,29,14.50
2016,04,02,13,30,14.60
2016,04,02,13,31,14.70
2016,04,02,13,32,14.70
2016,04,02,13,33,14.70
2016,04,02,13,34,14.60
2016,04,02,13,35,14.60
2016,04,02,13,36,14.50
2016,04,02,13,37,14.40
2016,04,02,13,38,14.40
2016,04,02,13,39,14.40
2016,04,02,13,40,14.40
2016,04,02,13,41,14.40
2016,04,02,13,42,14.40
2016,04,02,13,43,14.40
2016,04,02,13,44,14.50
2016,04,02,13,45,14.60
2016,04,02,13,46,14.70
2016,04,02,13,47,14.70
2016,04,02,13,48,14.70
2016,04,02,13,49,14.80
2016,04,02,13,50,14.60
2016,04,02,13,51,14.50
2016,04,02,13,52,14.50
2016,04,02,13,53,14.60
2016,04,02,13,54,14.70
2016,04,02,13,55,14.80
2016,04,02,13,56,15.00
2016,04,02,13,57,15.10
2016,04,02,13,58,15.20
2016,04,02,13,59,15.20
2016,04,02,14,00,15.20
2016,04,02,14,01,15.20
2016,04,02,14,02,15.30
2016,04,02,14,03,15.40
2016,04,02,14,04,15.50
2016,04,02,14,05,15.50
2016,04,02,14,06,15.60
2016,04,02,14,07,15.60
2016,04,02,14,08,15.60
2016,04,02,14,09,15.70
2016,04,02,14,10,15.70
2016,04,02,14,11,15.60
2016,04,02,14,12,15.50
2016,04,02,14,13,15.40
2016,04,02,14,14,15.20
2016,04,02,14,15,15.10
2016,04,02,14,16,15.00
2016,04,02,14,17,15.00
2016,04,02,14,18,15.00
2016,04,02,14,19,15.10
2016,04,02,14,20,15.00
2016,04,02,14,21,14.90
2016,04,02,14,22,14.90
2016,04,02,14,23,14.80
2016,04,02,14,24,14.80
2016,04,02,14,25,14.80
2016,04,02,14,26,14.80
2016,04,02,14,27,14.80
2016,04,02,14,28,14.80
2016,04,02,14,29,14.60
2016,04,02,14,30,14.30
2016,04,02,14,31,14.20
2016,04,02,14,32,14.10
2016,04,02,14,33,14.10
2016,04,02,14,34,14.00
2016,04,02,14,35,13.90
2016,04,02,14,36,13.80
2016,04,02,14,37,13.80
2016,04,02,14,38,13.80
2016,04,02,14,39,13.90
2016,04,02,14,40,14.00
2016,04,02,14,41,14.10
2016,04,02,14,42,14.00
2016,04,02,14,43,13.90
2016,04,02,14,44,13.90
2016,04,02,14,45,14.00
2016,04,02,14,46,14.00
2016,04,02,14,47,14.10
2016,04,02,14,48,14.10
2016,04,02,14,49,14.20
2016,04,02,14,50,14.30
2016,04,02,14,51,14.20
2016,04,02,14,52,14.20
2016,04,02,14,53,14.20
2016,04,02,14,54,14.20
2016,04,02,14,55,14.10
2016,04,02,14,56,13.80
2016,04,02,14,57,13.60
2016,04,02,14,58,13.60
2016,04,02,14,59,13.60
2016,04,02,15,00,13.70
2016,04,02,15,01,13.70
2016,04,02,15,02,13.60
2016,04,02,15,03,13.70
2016,04,02,15,04,13.80
2016,04,02,15,05,13.90
2016,04,02,15,06,14.10
2016,04,02,15,07,14.30
2016,04,02,15,08,14.40
2016,04,02,15,09,14.50
2016,04,02,15,10,14.60
2016,04,02,15,11,14.60
2016,04,02,15,12,14.60
2016,04,02,15,13,14.40
2016,04,02,15,14,14.30
2016,04,02,15,15,14.20
2016,04,02,15,16,14.00
2016,04,02,15,17,13.90
2016,04,02,15,18,14.00
2016,04,02,15,19,14.10
2016,04,02,15,20,14.10
2016,04,02,15,21,14.20
2016,04,02,15,22,14.40
2016,04,02,15,23,14.50
2016,04,02,15,24,14.60
2016,04,02,15,25,14.60
2016,04,02,15,26,14.60
2016,04,02,15,27,14.70
2016,04,02,15,28,14.80
2016,04,02,15,29,14.90
2016,04,02,15,30,15.00
2016,04,02,15,31,15.10
2016,04,02,15,32,15.10
2016,04,02,15,33,15.00
2016,04,02,15,34,14.90
2016,04,02,15,35,14.90
2016,04,02,15,36,14.90
2016,04,02,15,37,14.90
2016,04,02,15,38,15.00
2016,04,02,15,39,15.00
2016,04,02,15,40,14.90
2016,04,02,15,41,14.90
2016,04,02,15,42,15.00
2016,04,02,15,43,15.00
2016,04,02,15,44,15.10
2016,04,02,15,45,15.10
2016,04,02,15,46,15.20
2016,04,02,15,47,15.30
2016,04,02,15,48,15.40
2016,04,02,15,49,15.50
2016,04,02,15,50,15.50
2016,04,02,15,51,15.30
2016,04,02,15,52,15.10
2016,04,02,15,53,15.00
2016,04,02,15,54,15.00
2016,04,02,15,55,14.90
2016,04,02,15,56,14.80
2016,04,02,15,57,14.90
2016,04,02,15,58,14.90
2016,04,02,15,59,15.00
2016,04,02,16,00,15.00
2016,04,02,16,01,15.00
2016,04,02,16,02,14.90
2016,04,02,16,03,14.90
2016,04,02,16,04,15.00
2016,04,02,16,05,15.10
2016,04,02,16,06,15.10
2016,04,02,16,07,15.00
2016,04,02,16,08,15.00
2016,04,02,16,09,15.10
2016,04,02,16,10,15.10
2016,04,02,16,11,15.10
2016,04,02,16,12,14.90
2016,04,02,16,13,14.80
2016,04,02,16,14,14.80
2016,04,02,16,15,14.70
2016,04,02,16,16,14.60
2016,04,02,16,17,14.50
2016,04,02,16,18,14.40
2016,04,02,16,19,14.40
2016,04,02,16,20,14.40
2016,04,02,16,21,14.40
2016,04,02,16,22,14.40
2016,04,02,16,23,14.40
2016,04,02,16,24,14.40
2016,04,02,16,25,14.40
2016,04,02,16,26,14.50
2016,04,02,16,27,14.50
2016,04,02,16,28,14.50
2016,04,02,16,29,14.60
2016,04,02,16,30,14.70
2016,04,02,16,31,14.70
2016,04,02,16,32,14.70
2016,04,02,16,33,14.80
2016,04,02,16,34,14.80
2016,04,02,16,35,14.80
2016,04,02,16,36,14.70
2016,04,02,16,37,14.70
2016,04,02,16,38,14.70
2016,04,02,16,39,14.70
2016,04,02,16,40,14.70
2016,04,02,16,41,14.70
2016,04,02,16,42,14.80
2016,04,02,16,43,14.90
2016,04,02,16,44,15.10
2016,04,02,16,45,15.10
2016,04,02,16,46,15.20
2016,04,02,16,47,15.30
2016,04,02,16,48,15.40
2016,04,02,16,49,15.40
2016,04,02,16,50,15.50
2016,04,02,16,51,15.60
2016,04,02,16,52,15.60
2016,04,02,16,53,15.60
2016,04,02,16,54,15.70
2016,04,02,16,55,15.70
2016,04,02,16,56,15.70
2016,04,02,16,57,15.80
2016,04,02,16,58,15.80
2016,04,02,16,59,15.80
2016,04,02,17,00,15.80
2016,04,02,17,01,15.80
2016,04,02,17,02,15.80
2016,04,02,17,03,15.70
2016,04,02,17,04,15.70
2016,04,02,17,05,15.60
2016,04,02,17,06,15.60
2016,04,02,17,07,15.60
2016,04,02,17,08,15.50
2016,04,02,17,09,15.50
2016,04,02,17,10,15.50
2016,04,02,17,11,15.40
2016,04,02,17,12,15.40
2016,04,02,17,13,15.30
2016,04,02,17,14,15.30
2016,04,02,17,15,15.20
2016,04,02,17,16,15.20
2016,04,02,17,17,15.20
2016,04,02,17,18,15.10
2016,04,02,17,19,15.10
2016,04,02,17,20,15.10
2016,04,02,17,21,15.10
2016,04,02,17,22,15.20
2016,04,02,17,23,15.30
2016,04,02,17,24,15.40
2016,04,02,17,25,15.40
2016,04,02,17,26,15.40
2016,04,02,17,27,15.40
2016,04,02,17,28,15.40
2016,04,02,17,29,15.40
2016,04,02,17,30,15.30
2016,04,02,17,31,15.30
2016,04,02,17,32,15.20
2016,04,02,17,33,15.10
2016,04,02,17,34,15.00
2016,04,02,17,35,14.90
2016,04,02,17,36,14.80
2016,04,02,17,37,14.80
2016,04,02,17,38,14.70
2016,04,02,17,39,14.60
2016,04,02,17,40,14.60
2016,04,02,17,41,14.50
2016,04,02,17,42,14.50
2016,04,02,17,43,14.40
2016,04,02,17,44,14.50
2016,04,02,17,45,14.50